[Date Prev][Date Next][Thread Prev][Thread Next] - [Date Index][Thread Index][Author Index]

2 Line ISS Keps 11-10



ISS
1 25544U 98067A   02314.38490329  .00051491  00000-0  66000-3 0  3571
2 25544  51.6400  38.9347 0013318 120.8385   6.6757 15.58543414226770


----
Via the sarex mailing list at AMSAT.ORG courtesy of AMSAT-NA.
To unsubscribe, send "unsubscribe sarex" to Majordomo@amsat.org



AMSAT Top AMSAT Home